Location: Juzet
(42.9779°N, 0.7597°E)
Time: 19:09:53
(UTC+00:00)

Meteor 1-29 - Pass Details

Date: 14 July 2020
Orbit: 440 x 459 km, 97.7° (Epoch: 12 August)

Event Time Altitude Azimuth Distance (km) Brightness Sun altitude
Rises 00:55:55 0° 10° (N) 2,464 8.1 -24.2°
Reaches altitude 10° 00:57:57 10° 9° (N) 1,590 6.7 -24.2°
Enters shadow 01:00:29 47° 357° (N) 611 3.9 -24.0°
